NOZ7H ENCN-ENGM

Flight info

Callsign NOZ7H
Flight time 0h 39m
Altitude 31000
Route VAVET DCT PIPEX M609 RIPAM
Aircraft B738/M-SDE2E3GHIJ1LRWXY/LB1

Departure

Time 2026-05-07 15:53
Airport Kristiansand Airport (ENCN)

Arrival

Time 2026-05-07 16:32
Airport Oslo-Gardermoen International Airport (ENGM)
Time Latitude Longitude Altitude Speed Heading
2026-05-07 15:22 58.20246 8.07557 57 ft 0 kts 302°
2026-05-07 15:45 58.20233 8.07590 56 ft 4 kts 321°
2026-05-07 15:45 58.20211 8.07612 50 ft 4 kts 359°
2026-05-07 15:45 58.20192 8.07605 52 ft 0 kts 31°
2026-05-07 15:47 58.20202 8.07616 50 ft 4 kts 31°
2026-05-07 15:48 58.20242 8.07663 54 ft 9 kts 32°
2026-05-07 15:48 58.20302 8.07748 54 ft 10 kts 47°
2026-05-07 15:48 58.20353 8.07865 57 ft 13 kts 52°
2026-05-07 15:48 58.20416 8.08019 54 ft 17 kts 52°
2026-05-07 15:49 58.20472 8.08163 54 ft 11 kts 65°
2026-05-07 15:49 58.20455 8.08303 51 ft 12 kts 124°
2026-05-07 15:49 58.20412 8.08447 56 ft 12 kts 98°
2026-05-07 15:49 58.20460 8.08587 57 ft 15 kts 35°
2026-05-07 15:50 58.20560 8.08720 54 ft 20 kts 35°
2026-05-07 15:50 58.20636 8.08822 58 ft 21 kts 35°
2026-05-07 15:50 58.20804 8.09045 59 ft 23 kts 35°
2026-05-07 15:50 58.20942 8.09227 58 ft 25 kts 35°
2026-05-07 15:51 58.21067 8.09393 52 ft 16 kts 36°
2026-05-07 15:51 58.21135 8.09523 56 ft 11 kts 13°
2026-05-07 15:51 58.21152 8.09472 53 ft 7 kts 242°
2026-05-07 15:51 58.21095 8.09427 52 ft 0 kts 213°
2026-05-07 15:52 58.21094 8.09427 52 ft 1 kts 213°
2026-05-07 15:52 58.20821 8.09066 60 ft 82 kts 215°
2026-05-07 15:52 58.20177 8.08217 57 ft 141 kts 214°
2026-05-07 15:52 58.19606 8.07494 330 ft 149 kts 213°
2026-05-07 15:53 58.18399 8.05992 1248 ft 162 kts 211°
2026-05-07 15:53 58.17309 8.04897 1519 ft 192 kts 202°
2026-05-07 15:53 58.16025 8.03949 1973 ft 207 kts 199°
2026-05-07 15:53 58.14603 8.03127 2267 ft 222 kts 195°
2026-05-07 15:54 58.13581 8.02579 2609 ft 228 kts 196°
2026-05-07 15:54 58.11543 8.01485 3426 ft 233 kts 192°
2026-05-07 15:54 58.09880 8.01716 3751 ft 253 kts 154°
2026-05-07 15:54 58.08536 8.03885 4446 ft 261 kts 124°
2026-05-07 15:55 58.07886 8.07071 5245 ft 265 kts 97°
2026-05-07 15:55 58.08090 8.10533 5959 ft 272 kts 68°
2026-05-07 15:55 58.09190 8.13424 6695 ft 275 kts 40°
2026-05-07 15:55 58.10203 8.14872 7204 ft 277 kts 33°
2026-05-07 15:56 58.12420 8.17479 8148 ft 283 kts 30°
2026-05-07 15:56 58.14096 8.19347 8925 ft 285 kts 29°
2026-05-07 15:56 58.15253 8.20641 9420 ft 287 kts 29°
2026-05-07 15:56 58.17550 8.23241 10341 ft 294 kts 29°
2026-05-07 15:57 58.19355 8.25311 10592 ft 315 kts 30°
2026-05-07 15:57 58.20620 8.26775 10717 ft 329 kts 30°
2026-05-07 15:57 58.22616 8.29099 11105 ft 343 kts 30°
2026-05-07 15:57 58.24649 8.31489 11822 ft 345 kts 30°
2026-05-07 15:58 58.26693 8.33906 12509 ft 349 kts 30°
2026-05-07 15:58 58.28768 8.36367 13211 ft 353 kts 30°
2026-05-07 15:58 58.31550 8.39676 14155 ft 359 kts 29°
2026-05-07 15:58 58.33674 8.42208 14832 ft 362 kts 29°
2026-05-07 15:59 58.35820 8.44771 15502 ft 366 kts 29°
2026-05-07 15:59 58.37253 8.46485 15958 ft 368 kts 29°
2026-05-07 15:59 58.39434 8.49097 16648 ft 373 kts 29°
2026-05-07 15:59 58.41642 8.51742 17319 ft 376 kts 29°
2026-05-07 16:00 58.43875 8.54413 17956 ft 381 kts 29°
2026-05-07 16:00 58.46865 8.58013 18773 ft 386 kts 29°
2026-05-07 16:00 58.49144 8.60764 19366 ft 389 kts 29°
2026-05-07 16:00 58.51438 8.63536 19932 ft 393 kts 29°
2026-05-07 16:01 58.53007 8.65434 20328 ft 395 kts 28°
2026-05-07 16:01 58.55306 8.68217 20884 ft 398 kts 29°
2026-05-07 16:01 58.57655 8.71065 21434 ft 402 kts 28°
2026-05-07 16:01 58.60022 8.73938 21996 ft 405 kts 28°
2026-05-07 16:02 58.62414 8.76848 22539 ft 408 kts 28°
2026-05-07 16:02 58.64819 8.79778 23075 ft 411 kts 28°
2026-05-07 16:02 58.68031 8.83699 23730 ft 417 kts 28°
2026-05-07 16:02 58.69698 8.85736 23998 ft 420 kts 28°
2026-05-07 16:03 58.72168 8.88761 24442 ft 422 kts 28°
2026-05-07 16:03 58.74615 8.91765 24913 ft 424 kts 28°
2026-05-07 16:03 58.77103 8.94823 25358 ft 426 kts 28°
2026-05-07 16:03 58.79610 8.97908 25756 ft 429 kts 28°
2026-05-07 16:04 58.82131 9.01015 26174 ft 431 kts 28°
2026-05-07 16:04 58.84665 9.04151 26584 ft 434 kts 29°
2026-05-07 16:04 58.87137 9.07567 26967 ft 439 kts 33°
2026-05-07 16:04 58.89546 9.11246 27412 ft 441 kts 34°
2026-05-07 16:05 58.91916 9.14998 27967 ft 439 kts 35°
2026-05-07 16:05 58.94267 9.18735 28552 ft 437 kts 34°
2026-05-07 16:05 58.96591 9.22400 29076 ft 436 kts 34°
2026-05-07 16:05 58.98948 9.26085 29613 ft 435 kts 33°
2026-05-07 16:06 59.01291 9.29728 29658 ft 433 kts 33°
2026-05-07 16:06 59.03608 9.33329 29584 ft 419 kts 33°
2026-05-07 16:06 59.05844 9.36810 29509 ft 406 kts 33°
2026-05-07 16:06 59.08033 9.40213 29263 ft 399 kts 33°
2026-05-07 16:07 59.10194 9.43572 28835 ft 397 kts 33°
2026-05-07 16:07 59.12344 9.46920 28374 ft 395 kts 33°
2026-05-07 16:07 59.14459 9.50218 27941 ft 393 kts 33°
2026-05-07 16:07 59.16586 9.53547 27555 ft 391 kts 33°
2026-05-07 16:08 59.18698 9.56849 27162 ft 388 kts 32°
2026-05-07 16:08 59.20879 9.59882 26765 ft 383 kts 27°
2026-05-07 16:08 59.23106 9.62702 26395 ft 380 kts 26°
2026-05-07 16:08 59.25325 9.65462 26052 ft 377 kts 26°
2026-05-07 16:09 59.27530 9.68238 25643 ft 377 kts 26°
2026-05-07 16:09 59.29721 9.71044 25257 ft 376 kts 27°
2026-05-07 16:09 59.31897 9.73849 24903 ft 373 kts 26°
2026-05-07 16:09 59.34157 9.75993 24524 ft 360 kts
2026-05-07 16:10 59.36555 9.77303 24196 ft 356 kts
2026-05-07 16:10 59.38938 9.78555 23847 ft 354 kts
2026-05-07 16:10 59.41316 9.79813 23453 ft 353 kts
2026-05-07 16:10 59.43684 9.81089 23049 ft 352 kts
2026-05-07 16:11 59.46031 9.82374 22655 ft 349 kts
2026-05-07 16:11 59.48361 9.83663 22257 ft 348 kts
2026-05-07 16:11 59.50683 9.84955 21850 ft 346 kts
2026-05-07 16:11 59.52963 9.86229 21552 ft 344 kts
2026-05-07 16:12 59.55257 9.87513 21231 ft 341 kts
2026-05-07 16:12 59.57538 9.88793 20867 ft 340 kts
2026-05-07 16:12 59.59807 9.90066 20492 ft 339 kts 10°
2026-05-07 16:12 59.62072 9.91339 20145 ft 337 kts 10°
2026-05-07 16:13 59.64316 9.92603 19822 ft 334 kts 10°
2026-05-07 16:13 59.66550 9.93862 19470 ft 333 kts 10°
2026-05-07 16:13 59.68779 9.95109 19160 ft 332 kts 10°
2026-05-07 16:13 59.70997 9.96347 18838 ft 330 kts 10°
2026-05-07 16:14 59.73203 9.97579 18510 ft 329 kts 10°
2026-05-07 16:14 59.75401 9.98809 18160 ft 328 kts 11°
2026-05-07 16:14 59.77565 10.00023 17807 ft 326 kts 11°
2026-05-07 16:14 59.79654 10.01197 17511 ft 324 kts 10°
2026-05-07 16:15 59.81813 10.02412 17167 ft 322 kts 10°
2026-05-07 16:15 59.83964 10.03623 16812 ft 320 kts 11°
2026-05-07 16:15 59.86100 10.04826 16472 ft 319 kts 11°
2026-05-07 16:15 59.88228 10.06027 16148 ft 317 kts 11°
2026-05-07 16:16 59.90344 10.07224 15830 ft 315 kts 11°
2026-05-07 16:16 59.92446 10.08414 15509 ft 314 kts 11°
2026-05-07 16:16 59.94543 10.09605 15189 ft 312 kts 12°
2026-05-07 16:16 59.96625 10.10787 14886 ft 311 kts 12°
2026-05-07 16:17 59.98671 10.11965 14564 ft 309 kts 12°
2026-05-07 16:17 60.00754 10.13167 14254 ft 308 kts 12°
2026-05-07 16:17 60.02805 10.14350 13954 ft 306 kts 12°
2026-05-07 16:17 60.04819 10.15512 13628 ft 305 kts 12°
2026-05-07 16:18 60.06852 10.16685 13294 ft 303 kts 12°
2026-05-07 16:18 60.08901 10.17867 12980 ft 302 kts 12°
2026-05-07 16:18 60.10912 10.19030 12664 ft 300 kts 12°
2026-05-07 16:18 60.12914 10.20190 12352 ft 298 kts 13°
2026-05-07 16:19 60.14890 10.21337 12196 ft 291 kts 13°
2026-05-07 16:19 60.16800 10.22446 12163 ft 280 kts 12°
2026-05-07 16:19 60.18629 10.23511 12133 ft 268 kts 12°
2026-05-07 16:19 60.20376 10.24528 12151 ft 255 kts 12°
2026-05-07 16:20 60.22041 10.25496 12152 ft 245 kts 12°
2026-05-07 16:20 60.23640 10.26425 12154 ft 241 kts 12°
2026-05-07 16:20 60.25272 10.27369 12181 ft 248 kts 12°
2026-05-07 16:20 60.26957 10.28345 11993 ft 258 kts 12°
2026-05-07 16:21 60.28737 10.29378 11449 ft 273 kts 12°
2026-05-07 16:21 60.30582 10.30456 10993 ft 279 kts 13°
2026-05-07 16:21 60.32453 10.31553 10660 ft 280 kts 13°
2026-05-07 16:21 60.34283 10.32891 10392 ft 280 kts 20°
2026-05-07 16:22 60.36050 10.34527 10115 ft 279 kts 22°
2026-05-07 16:22 60.37803 10.36193 9809 ft 278 kts 22°
2026-05-07 16:22 60.39548 10.37852 9502 ft 277 kts 26°
2026-05-07 16:22 60.40968 10.40458 9141 ft 281 kts 59°
2026-05-07 16:23 60.41492 10.44227 8895 ft 279 kts 83°
2026-05-07 16:23 60.41758 10.48106 8615 ft 278 kts 81°
2026-05-07 16:23 60.42056 10.51958 8329 ft 277 kts 81°
2026-05-07 16:23 60.42362 10.55781 8072 ft 274 kts 80°
2026-05-07 16:24 60.42669 10.59574 7832 ft 272 kts 80°
2026-05-07 16:24 60.42976 10.63349 7573 ft 270 kts 80°
2026-05-07 16:24 60.43282 10.67085 7327 ft 268 kts 80°
2026-05-07 16:24 60.43582 10.70760 7046 ft 268 kts 81°
2026-05-07 16:25 60.43885 10.74470 6797 ft 266 kts 81°
2026-05-07 16:25 60.44184 10.78155 6548 ft 264 kts 81°
2026-05-07 16:25 60.44480 10.81807 6287 ft 263 kts 81°
2026-05-07 16:25 60.44774 10.85446 6054 ft 261 kts 81°
2026-05-07 16:26 60.45066 10.89066 5863 ft 260 kts 81°
2026-05-07 16:26 60.45358 10.92677 5701 ft 260 kts 81°
2026-05-07 16:26 60.45647 10.96293 5527 ft 261 kts 81°
2026-05-07 16:26 60.45935 10.99899 5359 ft 257 kts 81°
2026-05-07 16:27 60.46197 11.03201 5192 ft 252 kts 81°
2026-05-07 16:27 60.46386 11.06627 5038 ft 246 kts 95°
2026-05-07 16:27 60.45826 11.09796 5011 ft 237 kts 125°
2026-05-07 16:27 60.44751 11.12279 5011 ft 233 kts 136°
2026-05-07 16:28 60.43604 11.14495 4931 ft 227 kts 137°
2026-05-07 16:28 60.42458 11.16690 4721 ft 225 kts 137°
2026-05-07 16:28 60.41311 11.18800 4540 ft 220 kts 146°
2026-05-07 16:28 60.39886 11.19664 4369 ft 217 kts 186°
2026-05-07 16:29 60.38401 11.18962 4103 ft 226 kts 199°
2026-05-07 16:29 60.36869 11.17982 3801 ft 234 kts 197°
2026-05-07 16:29 60.35299 11.17065 3482 ft 236 kts 197°
2026-05-07 16:29 60.33711 11.16152 3160 ft 238 kts 196°
2026-05-07 16:30 60.32150 11.15253 2851 ft 229 kts 197°
2026-05-07 16:30 60.30664 11.14399 2550 ft 220 kts 197°
2026-05-07 16:30 60.29245 11.13575 2262 ft 203 kts 196°
2026-05-07 16:30 60.27944 11.12825 2013 ft 186 kts 197°
2026-05-07 16:31 60.26755 11.12138 1760 ft 171 kts 197°
2026-05-07 16:31 60.25669 11.11511 1574 ft 159 kts 196°
2026-05-07 16:31 60.24613 11.10901 1354 ft 156 kts 197°
2026-05-07 16:31 60.23577 11.10302 1147 ft 155 kts 197°
2026-05-07 16:32 60.22532 11.09709 912 ft 156 kts 197°
2026-05-07 16:32 60.21513 11.09120 721 ft 151 kts 197°
2026-05-07 16:32 60.20574 11.08574 678 ft 128 kts 196°
2026-05-07 16:32 60.19992 11.08243 674 ft 39 kts 197°
2026-05-07 16:33 60.19748 11.08118 673 ft 31 kts 183°
2026-05-07 16:33 60.19599 11.08174 672 ft 15 kts 138°
2026-05-07 16:33 60.19569 11.08285 674 ft 7 kts 104°
2026-05-07 16:33 60.19557 11.08385 676 ft 7 kts 104°
2026-05-07 16:34 60.19541 11.08501 676 ft 9 kts 105°
2026-05-07 16:34 60.19520 11.08647 674 ft 13 kts 106°
2026-05-07 16:34 60.19494 11.08826 682 ft 13 kts 106°
2026-05-07 16:34 60.19468 11.09005 684 ft 15 kts 106°
2026-05-07 16:35 60.19443 11.09183 684 ft 9 kts 105°
2026-05-07 16:35 60.19443 11.09236 684 ft 2 kts 60°
2026-05-07 16:35 60.19453 11.09248 679 ft 2 kts 26°
2026-05-07 16:35 60.19464 11.09256 682 ft 2 kts 20°
2026-05-07 16:36 60.19478 11.09265 684 ft 2 kts 17°
2026-05-07 16:36 60.19484 11.09269 684 ft 1 kts 17°
2026-05-07 16:36 60.19487 11.09271 684 ft 0 kts 17°